Date String (YYYY-MM-DD hh:mm:ss) UTC,Instrument flags,Ambient pressure (hPa),Sample flow (lpm),Bypass flow (lpm),Sample temperature (°C),Ambient temperature (°C),ASC tube jacket temperature (°C),LED temperature (°C),Box temperature (°C),Sample RH (%),Span deviation,Mass concentration (μg/m³),Mass concentration (μg/m³),Mass concentration (μg/m³)
DateTimeUTC,F1_M11,P_M11,Q1_M11,Q2_M11,T1_M11,T2_M11,T3_M11,T4_M11,T5_M11,U1_M11,ZSPAN_M11,X2_M11,X0_M11,X1_M11
2021-08-29 13:00:00,,0833.5,5.00,0.00,30.0,29.2,00.0,39.1,31.9,26.7,0001.5,0012.20,0022.57,0011.23
2021-08-29 13:01:00,,0833.4,5.01,0.00,30.1,29.3,00.0,39.1,31.9,26.6,0001.5,0012.26,0022.54,0011.24
2021-08-29 13:02:00,,0833.4,5.00,0.00,30.1,29.3,00.0,39.1,31.9,26.6,0001.5,0012.27,0022.39,0011.26
2021-08-29 13:03:00,,0833.4,4.99,0.00,30.1,29.3,00.0,39.2,31.9,26.7,0001.3,0012.25,0022.23,0011.27
2021-08-29 13:04:00,,0833.5,5.00,0.00,30.1,29.4,00.0,39.2,32.0,26.7,0001.2,0012.24,0020.20,0011.28
2021-08-29 13:05:00,,0833.4,5.01,0.00,30.1,29.4,00.0,39.2,32.0,26.6,0001.4,0012.30,0020.00,0011.28
2021-08-29 13:06:00,,0833.4,5.01,0.00,30.2,29.4,00.0,39.2,32.0,26.6,0001.5,0012.39,0020.36,0011.29
2021-08-29 13:07:00,,0833.4,5.00,0.00,30.2,29.4,00.0,39.2,32.0,26.6,0001.5,0012.45,0020.33,0011.31
2021-08-29 13:08:00,,0833.4,5.00,0.00,30.2,28.1,00.0,39.2,31.7,26.6,0001.5,0012.47,0020.27,0011.33
2021-08-29 13:09:00,,0833.3,5.00,0.00,30.0,26.5,00.0,39.2,31.3,26.7,0001.6,0012.47,0020.25,0011.34
2021-08-29 13:10:00,,0833.3,5.00,0.00,29.9,26.4,00.0,39.2,31.2,26.9,0001.7,0012.51,0019.81,0011.36
2021-08-29 13:11:00,,0833.2,5.00,0.00,29.8,26.8,00.0,39.1,31.3,27.2,0002.0,0012.46,0019.70,0011.34
2021-08-29 13:12:00,,0833.3,5.00,0.00,29.8,27.2,00.0,39.1,31.3,27.2,0001.9,0012.40,0019.19,0011.32
2021-08-29 13:13:00,,0833.3,4.99,0.00,29.8,27.6,00.0,39.0,31.4,27.2,0001.9,0012.41,0018.99,0011.30
2021-08-29 13:14:00,,0833.3,5.00,0.00,29.8,27.9,00.0,39.0,31.4,27.2,0001.9,0012.40,0018.81,0011.29
2021-08-29 13:15:00,,0833.3,5.00,0.00,29.8,28.1,00.0,39.0,31.4,27.1,0002.0,0012.43,0019.45,0011.32
2021-08-29 13:16:00,,0833.4,4.99,0.00,29.8,28.3,00.0,39.0,31.5,27.0,0002.0,0012.45,0019.84,0011.34
2021-08-29 13:17:00,,0833.4,5.00,0.00,29.8,28.4,00.0,39.0,31.5,27.0,0002.0,0012.40,0019.51,0011.34
2021-08-29 13:18:00,,0833.4,5.00,0.00,29.8,28.5,00.0,39.0,31.5,27.1,0002.0,0012.32,0019.22,0011.30
2021-08-29 13:19:00,,0833.4,5.01,0.00,29.8,28.6,00.0,39.0,31.6,27.1,0002.1,0012.26,0019.47,0011.25
2021-08-29 13:20:00,,0833.4,5.00,0.00,29.9,28.7,00.0,39.0,31.6,27.3,0001.9,0012.22,0019.74,0011.20
2021-08-29 13:21:00,,0833.4,5.01,0.00,29.9,28.8,00.0,39.0,31.7,27.2,0001.8,0012.17,0019.56,0011.17
2021-08-29 13:22:00,,0833.4,5.00,0.00,29.9,28.9,00.0,39.0,31.7,27.1,0001.4,0012.17,0018.95,0011.14
2021-08-29 13:23:00,,0833.4,4.99,0.00,29.9,28.9,00.0,39.0,31.7,27.2,0001.5,0012.18,0018.90,0011.12
2021-08-29 13:24:00,,0833.5,5.00,0.00,29.9,29.0,00.0,39.0,31.8,26.9,0001.4,0012.16,0019.48,0011.10
2021-08-29 13:25:00,,0833.4,4.99,0.00,30.0,29.0,00.0,39.0,31.7,26.8,0001.4,0012.19,0020.63,0011.08
2021-08-29 13:26:00,,0833.4,5.00,0.00,30.0,29.1,00.0,39.1,31.8,26.8,0001.3,0012.13,0021.28,0011.02
2021-08-29 13:27:00,,0833.5,5.01,0.00,30.0,29.1,00.0,39.1,31.8,26.8,0001.5,0012.06,0020.76,0010.97
2021-08-29 13:28:00,,0833.4,5.01,0.00,30.0,29.2,00.0,39.1,31.8,26.8,0001.5,0012.05,0020.89,0010.94
2021-08-29 13:29:00,,0833.5,5.00,0.00,30.0,29.2,00.0,39.1,31.9,26.9,0001.7,0012.04,0021.55,0010.93
2021-08-29 13:30:00,,0833.4,5.00,0.00,30.1,29.2,00.0,39.1,31.9,26.8,0001.6,0012.01,0021.80,0010.90
2021-08-29 13:31:00,,0833.4,5.01,0.00,30.1,29.3,00.0,39.1,31.9,26.6,0001.6,0011.98,0021.55,0010.90
2021-08-29 13:32:00,,0833.4,5.00,0.00,30.1,29.3,00.0,39.2,31.9,26.6,0001.6,0011.96,0022.76,0010.91
2021-08-29 13:33:00,,0833.5,5.00,0.00,30.2,29.3,00.0,39.2,32.0,26.7,0001.7,0011.91,0022.75,0010.87
2021-08-29 13:34:00,,0833.4,5.00,0.00,30.2,29.3,00.0,39.2,32.0,26.8,0001.7,0011.88,0022.60,0010.85
2021-08-29 13:35:00,,0833.4,5.00,0.00,30.2,29.4,00.0,39.2,32.0,26.6,0001.8,0011.83,0022.06,0010.84
2021-08-29 13:36:00,,0833.4,4.99,0.00,30.2,29.4,00.0,39.2,32.0,26.4,0001.8,0011.81,0021.52,0010.83
2021-08-29 13:37:00,,0833.5,5.01,0.00,30.2,29.4,00.0,39.3,32.0,26.4,0001.7,0011.82,0020.45,0010.84
2021-08-29 13:38:00,,0833.5,5.00,0.00,30.2,29.4,00.0,39.3,32.0,26.5,0001.5,0011.82,0020.29,0010.84
2021-08-29 13:39:00,,0833.5,4.99,0.00,30.3,29.5,00.0,39.3,32.0,26.5,0001.1,0011.80,0020.04,0010.82
2021-08-29 13:40:00,,0833.5,5.00,0.00,30.3,29.5,00.0,39.3,32.1,26.4,0000.9,0011.85,0019.61,0010.82
2021-08-29 13:41:00,,0833.6,5.01,0.00,30.3,29.5,00.0,39.3,32.1,26.3,0000.7,0011.85,0019.06,0010.82
2021-08-29 13:42:00,,0833.5,5.01,0.00,30.3,28.5,00.0,39.3,31.9,26.5,0000.8,0011.91,0019.51,0010.83
2021-08-29 13:43:00,,0833.5,5.00,0.00,30.1,26.7,00.0,39.3,31.4,26.7,0001.1,0011.97,0018.94,0010.83
2021-08-29 13:44:00,,0833.5,5.00,0.00,30.0,26.5,00.0,39.3,31.3,26.9,0001.2,0012.01,0019.20,0010.86
2021-08-29 13:45:00,,0833.5,5.00,0.00,29.9,26.8,00.0,39.2,31.3,27.1,0001.4,0012.03,0019.19,0010.87
2021-08-29 13:46:00,,0833.5,5.00,0.00,29.8,27.2,00.0,39.2,31.4,27.3,0001.4,0012.10,0019.24,0010.88
2021-08-29 13:47:00,,0833.5,5.00,0.00,29.8,27.6,00.0,39.1,31.4,27.3,0001.4,0012.08,0019.38,0010.87
2021-08-29 13:48:00,,0833.4,5.01,0.00,29.8,27.9,00.0,39.1,31.5,27.3,0001.5,0012.05,0019.42,0010.86
2021-08-29 13:49:00,,0833.5,4.99,0.00,29.8,28.1,00.0,39.1,31.5,27.3,0001.7,0011.99,0019.39,0010.85
2021-08-29 13:50:00,,0833.5,5.00,0.00,29.9,28.3,00.0,39.1,31.6,27.2,0002.0,0011.94,0020.05,0010.85
2021-08-29 13:51:00,,0833.4,4.99,0.00,29.9,28.5,00.0,39.1,31.7,26.9,0002.3,0011.92,0020.49,0010.84
2021-08-29 13:52:00,,0833.4,4.99,0.00,29.9,28.6,00.0,39.1,31.7,27.0,0002.3,0011.98,0020.69,0010.85
2021-08-29 13:53:00,,0833.4,5.00,0.00,29.9,28.7,00.0,39.1,31.7,27.1,0002.2,0011.94,0020.04,0010.82
2021-08-29 13:54:00,,0833.5,5.00,0.00,29.9,28.8,00.0,39.1,31.7,27.2,0002.4,0011.90,0019.61,0010.81
2021-08-29 13:55:00,,0833.4,4.98,0.00,30.0,28.8,00.0,39.1,31.7,27.2,0002.4,0011.93,0019.89,0010.80
2021-08-29 13:56:00,,0833.5,5.01,0.00,30.0,28.9,00.0,39.1,31.8,27.2,0002.2,0011.91,0019.95,0010.80
2021-08-29 13:57:00,,0833.4,5.00,0.00,30.0,28.9,00.0,39.1,31.8,27.3,0002.3,0011.92,0019.93,0010.81
2021-08-29 13:58:00,,0833.5,5.01,0.00,30.0,29.0,00.0,39.1,31.8,27.6,0002.4,0011.90,0019.21,0010.82
2021-08-29 13:59:00,,0833.4,4.99,0.00,30.0,29.0,00.0,39.1,31.9,27.5,0002.3,0011.90,0019.26,0010.80
